Flag for U.S.A. Weather past 2 weeks in Inglewood, California, U.S.A.

Now
66 °F

Sunny.


Feels Like: 66 °F
Forecast: 58 / 69 °F
Wind: 10 mph from Southwest

Location: Hawthorne Municipal Airport

Current Time: May 25, 2015 at 7:03:12 PM

Latest Report: May 25, 2015 at 5:53 PM


Visibility: 10 mi

Pressure: 29.95 "Hg

Humidity: 68%

Dew point: 55 °F

Location of InglewoodLocation

Historic Weather in Inglewood — Graph

°F

Inglewood temperature yesterday

Maximum temperature yesterday: 69 °F (at 12:53 PM)
Minimum temperature yesterday: 61 °F (at 12:53 AM)
Average temperature yesterday: 64 °F

Past Weeks' High & Low Weather Summary

 TemperatureHumidityPressure
High71 °F (May 11, 11:53 AM)84% (May 14, 1:53 PM)30.09 "Hg (May 14, 1:53 PM)
Low56 °F (May 15, 6:53 AM)39% (May 12, 3:53 PM)29.81 "Hg (May 11, 6:53 PM)
Average63 °F67%29.96 "Hg
* Reported May 10 5:53 PM — May 25 5:53 PM, Inglewood, Weather by CustomWeather, © 2015

Note: Actual official high and low records may vary slightly from our data, if they occured in-between our weather recording intervals... More about our weather records

Advertising

Inglewood weather history for previous 24 hours

 ConditionsComfort  
Time TempWeatherWind HumidityBarometerVisibility
5:53 PM
Mon, May 25
66 °FSunny.10 mph68%29.95 "Hg10 mi
4:53 PM67 °FOvercast.10 mph66%29.96 "Hg10 mi
3:53 PM68 °FOvercast.12 mph61%29.96 "Hg10 mi
2:53 PM68 °FOvercast.7 mph61%29.98 "Hg10 mi
1:53 PM67 °FOvercast.No wind63%29.99 "Hg10 mi
12:53 PM66 °FOvercast.3 mph63%30.01 "Hg10 mi
11:53 AM66 °FOvercast.5 mph63%30.01 "Hg10 mi
10:53 AM64 °FOvercast.6 mph68%30.00 "Hg10 mi
9:53 AM63 °FOvercast.3 mph70%30.00 "Hg10 mi
8:53 AM62 °FOvercast.No wind75%30.00 "Hg9 mi
7:53 AM62 °FOvercast.5 mph75%29.99 "Hg10 mi
6:53 AM61 °FOvercast.No wind78%29.98 "Hg10 mi
5:53 AM60 °FOvercast.No wind80%29.96 "Hg10 mi
4:53 AM60 °FPassing clouds.No wind80%29.94 "Hg10 mi
3:53 AM60 °FClear.No wind80%29.94 "Hg10 mi
2:53 AM61 °FPassing clouds.No wind78%29.96 "Hg10 mi
1:53 AM60 °FPassing clouds.No wind80%29.96 "Hg10 mi
12:53 AM60 °FClear.No wind78%29.96 "Hg10 mi
11:53 PM
Sun, May 24
61 °FClear.6 mph72%29.97 "Hg10 mi
10:53 PM61 °FClear.3 mph78%29.97 "Hg10 mi
9:53 PM62 °FPassing clouds.8 mph75%29.97 "Hg10 mi
8:53 PM62 °FSunny.7 mph75%29.96 "Hg10 mi
7:53 PM64 °FSunny.8 mph65%29.95 "Hg10 mi
Weather by CustomWeather, © 2015

See weather overviewHow to use our weather pages